Regional Weather Roundup
Issued by NWS Sterling, VA

Home | Current Version | Previous Version | Text Only | Print | Product List | Glossary Off
Versions: 1 2 3 4 5 6 7 8 9 10 11 12 13 14 15 16 17 18 19 20 21 22 23 24 25 26 27 28 29 30 31 32 33 34 35 36 37 38 39 40 41 42 43 44 45 46 47 48 49 50

940
ASUS41 KLWX 221011
RWRLWX

REGIONAL WEATHER ROUNDUP
NATIONAL WEATHER SERVICE BALTIMORE MD/WASHINGTON DC
500 AM EST WED NOV 22 2017

Note: "FAIR" indicates few or no clouds below 12,000 feet
with no significant weather and/or obstructions to visibility.
 TC=TEMPERATURE CELSIUS

 * =Non NWS site. Station does not report precipitation (e.g. rain,
    snow, etc.), thunder, or fog.

DCZ001-MDZ009-015-VAZ040>042-051-053>054-221100-
WASHINGTON METRO

CITY           SKY/WX    TMP DP  RH WIND       PRES   REMARKS
WASHINGTON NAT CLOUDY    51  49  92 S5        29.91F
DULLES         CLOUDY    50  43  77 NW5       29.92S
ANDREWS AFB    MOCLDY    52  50  93 S8        29.91S
FT BELVOIR     CLOUDY    48  46  94 SE5       29.91S
QUANTICO       CLOUDY    51  50  96 S7        29.93R
COLLEGE PARK*  CLOUDY    52  47  84 CALM      29.90F
LEESBURG*      MOCLDY    50  43  76 CALM      29.92F
MANASSAS*      CLOUDY    48  45  89 N8        29.93S
GAITHERSBURG*  CLOUDY    51  44  77 W5        29.92F

$$

MDZ006>007-011-014-221100-
BALTIMORE METRO

CITY           SKY/WX    TMP DP  RH WIND       PRES   REMARKS
BWI AIRPORT    LGT RAIN  49  48  97 CALM      29.90F
MARTIN STATE   DRIZZLE   48  46  93 CALM      29.92F
ANNAPOLIS      LGT RAIN  55  53  93 SW3       29.90F
FORT MEADE*    CLOUDY    45  43  93 CALM      29.93F

$$

MDZ012-015-019>023-221100-
MARYLAND EASTERN SHORE

CITY           SKY/WX    TMP DP  RH WIND       PRES   REMARKS
OCEAN CITY     CLOUDY    61  59  93 SW7       29.94R
SALISBURY      LGT RAIN  56  56 100 SE8       29.92F
CAMBRIDGE*     CLOUDY    55  54  94 VRB3      29.91F
EASTON*        CLOUDY    54  52  95 W6        29.96R FOG

$$

MDZ017>025-221100-
SOUTHERN MARYLAND

CITY           SKY/WX    TMP DP  RH WIND       PRES   REMARKS
PATUXENT RIVER LGT RAIN  54  52  93 W8        29.93S
ST INIGOES     LGT RAIN  53  52  96 W3        29.94R FOG
LEONARDTOWN*   CLOUDY    52  50  93 SW6       29.94S

$$

MDZ003>005-221100-
NORTH CENTRAL MARYLAND

CITY           SKY/WX    TMP DP  RH WIND       PRES   REMARKS
FREDERICK*     MOCLDY    46  37  71 CALM      29.94F
HAGERSTOWN APT CLOUDY    51  39  63 SW6       29.91S
WESTMINSTER*   CLOUDY    52  45  76 SW5       29.90S

$$

MDZ501>502-221100-
WESTERN MARYLAND

CITY           SKY/WX    TMP DP  RH WIND       PRES   REMARKS
OAKLAND*       CLOUDY    37  28  70 W8        29.90S
CUMBERLAND*    PTCLDY    37  34  87 CALM      29.99R

$$

VAZ025>031-221100-
SHENANDOAH VALLEY

CITY           SKY/WX    TMP DP  RH WIND       PRES   REMARKS
WINCHESTER*    CLOUDY    43  39  87 CALM      29.92S
FRONT ROYAL*   PTCLDY    45  41  87 CALM      29.92S
LURAY*         CLOUDY    50  45  81 SW6       29.93R
NEW MARKET*    MOCLDY    38  37  94 CALM      29.94R
STAUNTON*      CLOUDY    37  36  94 CALM      29.96R
WAYNESBORO*    MOCLDY    49  45  88 W3        29.94S

$$

WVZ021-048>050-054>055-221100-
EASTERN WEST VIRGINIA PANHANDLE

CITY           SKY/WX    TMP DP  RH WIND       PRES   REMARKS
MARTINSBURG    CLOUDY    52  34  50 W9        29.91S
PETERSBURG*    PTCLDY    48  34  57 CALM      29.96R

$$

VAZ036>039-050-221100-
CENTRAL FOOTHILLS

CITY           SKY/WX    TMP DP  RH WIND       PRES   REMARKS
CHARLOTTESVILL CLOUDY    48  42  80 W3        29.91S
CULPEPER*      PTCLDY    46  41  84 NW5       29.93R
ORANGE*        MOCLDY    43  43 100 CALM      29.91S
GORDONSVILLE*  CLOUDY    45  45 100 S3        29.91S
WARRENTON*     NOT AVBL

$$

VAZ055>057-221100-
NORTH AND CENTRAL PIEDMONT

CITY           SKY/WX    TMP DP  RH WIND       PRES   REMARKS
FREDERICKSBRG* CLOUDY    50  50 100 SE6       29.91F
STAFFORD*      MOCLDY    47  47 100 CALM      29.95S

$$

NCZ024-NYZ072-PAZ021-071-VAZ022-071-221100-
OTHER REGIONAL OBSERVATIONS

CITY           SKY/WX    TMP DP  RH WIND       PRES   REMARKS
PHILADELPHIA   CLOUDY    52  47  83 S5        29.91F
PITTSBURGH     FLURRIES  35  34  96 W9        30.03R WCI  28
ROANOKE        PTCLDY    51  43  74 W8        29.99R
RICHMOND       CLOUDY    51  51 100 CALM      29.93S
RALEIGH        MOCLDY    51  50  96 E3        29.94F

$$

ANZ530>537-221100-
MARINE OBSERVATIONS

STATION/POSITION TIME  TEMP    WIND        PRES
                       AIR SEA DIR/SP/G
                 (UTC) (F)     (DEG/KT/KT) (MB)
THOMAS PT LIGHT  1000   54 53  190/  7/  7   N/A
BALT KEY BRIDGE  0948   54     290/  3/  3 1012.6F
COVE POINT       0948   54     280/  8/ 14 1013.9R
LEWISETTA        0948   53 52  290/  6/  7 1013.7R
SOLOMONS ISLAND  0948   54 54  250/  5/  7 1013.2R
PINEY POINT      0948          320/  7/  8   N/A

$$





USA.gov is the U.S. government's official web portal to all federal, state and local government web resources and services.